KC5TXI Weather Reports


Display with metric or nautical units.
time (UTC)temp
F
wind
direction
speed
MPH
gust
MPH
rain 1hr
in
rain 24hr
in
rain mn
in
humidity
%
barometer
mb
20180814005539 76 257 0.0 0.0 0.00 0.08 0.08 89 1011.9
20180814005024 76 252 0.0 0.0 0.00 0.08 0.08 89 1011.9
20180814004523 77 250 0.0 0.0 0.00 0.08 0.08 90 1011.9
20180814004039 77 260 0.0 0.0 0.00 0.08 0.08 89 1011.9
20180814003553 77 253 0.0 0.0 0.00 0.08 0.08 90 1012.9
20180814003024 77 254 0.0 0.0 0.00 0.08 0.08 90 1012.9
20180814002523 77 260 0.0 0.0 0.00 0.08 0.08 90 1012.9
20180814002039 77 256 0.0 0.0 0.00 0.08 0.08 90 1012.9
20180814001523 77 254 0.0 0.0 0.00 0.08 0.08 90 1012.9
20180814001039 77 251 0.0 0.0 0.00 0.08 0.08 90 1012.9
20180814000523 77 260 0.0 0.0 0.00 0.08 0.08 90 1012.9
20180814000023 77 254 0.0 0.0 0.00 0.08 0.08 90 1012.9
20180813235523 77 253 0.0 0.0 0.00 0.08 0.08 91 1012.9
20180813235023 77 260 0.0 0.0 0.00 0.08 0.08 91 1013.9
20180813234523 77 257 0.0 0.0 0.00 0.08 0.08 91 1013.9
20180813234023 77 37 0.0 0.0 0.00 0.08 0.08 91 1013.9
20180813233523 76 42 0.0 0.0 0.00 0.08 0.08 91 1013.9
20180813233023 76 25 0.0 0.0 0.00 0.08 0.08 91 1013.9
20180813232539 76 31 0.0 0.0 0.00 0.08 0.08 91 1013.9
20180813232023 76 39 0.0 0.0 0.00 0.08 0.08 91 1013.9
20180813231523 76 29 0.0 0.0 0.00 0.08 0.08 91 1013.9
20180813231023 76 28 0.0 0.0 0.00 0.08 0.08 92 1013.9
20180813230523 76 26 0.0 0.0 0.00 0.08 0.08 92 1013.9
20180813230023 75 29 0.0 0.0 0.00 0.08 0.08 93 1013.9
20180813225539 75 27 0.0 0.0 0.00 0.08 0.08 94 1013.9
20180813225024 75 33 0.0 0.0 0.04 0.08 0.08 94 1013.9
20180813224523 75 31 0.0 0.0 0.04 0.08 0.08 94 1013.9
20180813224023 75 34 0.0 0.0 0.04 0.08 0.08 93 1013.9
20180813223523 75 29 0.0 0.0 0.04 0.08 0.08 93 1014.9
20180813223023 75 40 0.0 0.0 0.04 0.08 0.08 93 1014.9
20180813222523 75 5 0.0 0.0 0.04 0.08 0.08 92 1014.9
20180813222023 75 9 0.0 0.0 0.04 0.08 0.08 92 1014.9
20180813221523 75 3 0.0 0.0 0.04 0.08 0.08 93 1014.9
20180813221023 75 0 0.0 0.0 0.04 0.08 0.08 93 1014.9
20180813220523 75 3 0.0 0.0 0.04 0.08 0.08 92 1014.9
20180813220039 76 2 0.0 0.0 0.04 0.08 0.08 92 1014.9
20180813215539 76 327 0.0 4.0 0.04 0.08 0.08 91 1014.9
20180813215023 76 334 0.0 4.0 0.00 0.04 0.04 91 1014.9
20180813214523 76 201 0.0 0.0 0.00 0.04 0.04 91 1014.9
20180813214023 77 313 0.0 0.0 0.00 0.04 0.04 92 1014.9
20180813213523 77 334 0.0 0.0 0.00 0.04 0.04 92 1013.9
20180813213023 77 324 0.0 0.0 0.00 0.04 0.04 92 1013.9
20180813212523 78 55 0.0 0.0 0.00 0.04 0.04 92 1013.9
20180813212039 78 57 0.0 0.0 0.00 0.04 0.04 92 1013.9
20180813211523 78 57 0.0 0.0 0.00 0.04 0.04 92 1013.9
20180813211039 78 46 0.0 0.0 0.00 0.04 0.04 92 1013.9
20180813210553 78 47 0.0 0.0 0.00 0.04 0.04 92 1014.9
20180813210023 78 49 0.0 0.0 0.00 0.04 0.04 92 1014.9
20180813205523 78 47 0.0 0.0 0.00 0.04 0.04 92 1014.9
20180813205023 78 57 0.0 0.0 0.00 0.04 0.04 92 1014.9
20180813204523 78 59 0.0 0.0 0.00 0.04 0.04 92 1014.9
20180813204023 78 51 0.0 0.0 0.00 0.04 0.04 91 1014.9
20180813203539 78 46 0.0 0.0 0.00 0.04 0.04 90 1014.9
20180813203023 78 54 0.0 0.0 0.00 0.04 0.04 90 1014.9
20180813202523 78 57 0.0 0.0 0.00 0.04 0.04 88 1014.9
20180813202038 78 58 0.0 0.0 0.00 0.04 0.04 88 1014.9
20180813201523 78 47 0.0 0.0 0.00 0.04 0.04 88 1014.9
20180813201038 78 48 0.0 0.0 0.00 0.04 0.04 88 1014.9
20180813200539 78 48 0.0 0.0 0.00 0.04 0.04 87 1014.9
20180813200023 79 56 0.0 0.0 0.00 0.04 0.04 87 1014.9
20180813195539 79 46 0.0 0.0 0.00 0.04 0.04 86 1014.9
20180813195023 79 232 0.0 0.0 0.00 0.04 0.04 83 1014.9
20180813194553 79 227 0.0 0.0 0.00 0.04 0.04 77 1014.9
20180813194023 79 228 0.0 0.0 0.00 0.04 0.04 75 1014.9
20180813193523 80 227 0.0 0.0 0.00 0.04 0.04 74 1014.9
20180813193039 80 222 0.0 0.0 0.00 0.04 0.04 73 1014.9
20180813192523 81 223 0.0 0.0 0.00 0.04 0.04 72 1014.9
20180813192023 81 232 0.0 0.0 0.00 0.04 0.04 71 1014.9
20180813191523 81 205 0.0 4.0 0.00 0.04 0.04 70 1014.9
20180813191023 81 206 0.0 4.0 0.00 0.04 0.04 70 1014.9
20180813190538 80 217 0.0 5.0 0.00 0.04 0.04 71 1013.9
20180813190023 80 300 0.0 5.0 0.00 0.04 0.04 71 1013.9
20180813185523 81 123 0.0 0.0 0.00 0.04 0.04 73 1013.9
20180813185053 81 103 0.0 0.0 0.00 0.04 0.04 70 1014.9
20180813184523 82 103 0.0 0.0 0.00 0.04 0.04 69 1014.9
20180813184023 82 108 0.0 0.0 0.00 0.04 0.04 68 1014.9
20180813183523 83 107 0.0 5.0 0.00 0.04 0.04 65 1014.9
20180813183023 84 87 0.0 6.0 0.00 0.04 0.04 62 1014.9
20180813182523 85 216 0.0 9.0 0.00 0.04 0.04 60 1014.9
20180813182023 86 210 0.0 9.0 0.00 0.04 0.04 57 1014.9
20180813181523 87 212 0.0 8.0 0.00 0.04 0.04 55 1014.9
20180813181038 87 168 3.0 8.0 0.00 0.04 0.04 53 1014.9
20180813180539 87 225 5.0 8.0 0.00 0.04 0.04 54 1014.9
20180813180023 87 187 7.0 7.0 0.00 0.04 0.04 54 1014.9
20180813175523 87 131 5.0 7.0 0.00 0.04 0.04 56 1014.9
20180813175023 87 266 4.0 7.0 0.00 0.04 0.04 57 1014.9
20180813174523 87 146 4.0 9.0 0.00 0.04 0.04 58 1014.9
20180813174023 87 147 5.0 9.0 0.00 0.04 0.04 56 1014.9
20180813173553 87 218 7.0 8.0 0.00 0.04 0.04 56 1014.9
20180813173023 87 169 4.0 7.0 0.00 0.04 0.04 58 1014.9
20180813172523 87 267 5.0 10.0 0.00 0.04 0.04 60 1014.9
20180813172023 87 156 4.0 10.0 0.00 0.04 0.04 60 1015.9
20180813171523 87 122 4.0 7.0 0.00 0.04 0.04 61 1015.9
20180813171023 87 154 5.0 6.0 0.00 0.04 0.04 65 1015.9
20180813170539 86 189 5.0 7.0 0.00 0.04 0.04 66 1015.9
20180813170023 85 164 5.0 8.0 0.00 0.04 0.04 68 1015.9
20180813165523 85 141 4.0 8.0 0.00 0.04 0.04 68 1015.9
20180813165023 84 117 4.0 7.0 0.00 0.04 0.04 73 1015.9
20180813164523 84 117 0.0 9.0 0.00 0.04 0.04 74 1015.9
20180813164023 84 130 5.0 9.0 0.00 0.04 0.04 75 1015.9
20180813163523 83 112 3.0 8.0 0.00 0.04 0.04 75 1016.9
20180813163023 83 207 3.0 6.0 0.00 0.04 0.04 78 1016.9
20180813162523 83 109 0.0 7.0 0.00 0.04 0.04 79 1016.9
20180813162023 83 167 0.0 8.0 0.00 0.04 0.04 79 1016.9
20180813161523 82 132 0.0 8.0 0.00 0.04 0.04 81 1016.9
20180813161023 82 120 0.0 5.0 0.00 0.04 0.04 84 1016.9
20180813160523 81 263 0.0 5.0 0.00 0.04 0.04 85 1016.9
20180813160023 81 140 0.0 5.0 0.00 0.04 0.04 87 1016.9
20180813155523 81 117 0.0 5.0 0.00 0.04 0.04 87 1016.9
20180813155023 81 138 3.0 6.0 0.00 0.04 0.04 88 1016.9
20180813154523 80 114 0.0 6.0 0.00 0.04 0.04 89 1016.9
20180813154038 80 115 4.0 6.0 0.00 0.04 0.04 90 1016.9
20180813153523 80 136 0.0 6.0 0.00 0.04 0.04 90 1016.9
20180813153023 80 132 3.0 6.0 0.00 0.04 0.04 93 1016.9
20180813152523 79 229 0.0 6.0 0.00 0.04 0.04 94 1016.9
20180813152038 79 118 0.0 4.0 0.00 0.04 0.04 94 1016.9
20180813151523 79 208 0.0 3.0 0.00 0.04 0.04 95 1016.9
20180813151023 79 204 0.0 5.0 0.00 0.04 0.04 95 1016.9
20180813150523 78 131 0.0 5.0 0.00 0.04 0.04 95 1016.9
20180813150023 78 156 0.0 4.0 0.00 0.04 0.04 95 1016.9
20180813145523 78 213 3.0 5.0 0.00 0.04 0.04 95 1016.9
20180813145023 78 282 0.0 6.0 0.00 0.04 0.04 96 1016.9
20180813144523 77 279 0.0 6.0 0.00 0.04 0.04 96 1016.9
20180813144023 77 130 0.0 0.0 0.00 0.04 0.04 96 1016.9
20180813143523 77 230 0.0 3.0 0.00 0.04 0.04 96 1016.9
20180813143023 77 230 0.0 5.0 0.00 0.04 0.04 96 1016.9
20180813142538 77 119 3.0 5.0 0.00 0.04 0.04 96 1016.9
20180813142023 77 158 0.0 4.0 0.00 0.04 0.04 96 1016.9
20180813141553 76 156 0.0 4.0 0.00 0.04 0.04 96 1016.9
20180813141023 76 160 0.0 3.0 0.00 0.04 0.04 95 1016.9
20180813140523 76 160 0.0 3.0 0.00 0.04 0.04 96 1016.9
20180813140023 76 156 0.0 4.0 0.00 0.04 0.04 96 1016.9
20180813135538 76 156 0.0 4.0 0.00 0.04 0.04 96 1016.9
20180813135023 76 125 0.0 0.0 0.00 0.04 0.04 96 1016.9
20180813134523 76 118 0.0 0.0 0.00 0.04 0.04 96 1016.9
20180813134038 75 115 0.0 3.0 0.00 0.04 0.04 95 1016.9
20180813133538 75 117 0.0 4.0 0.00 0.04 0.04 95 1016.9
20180813133053 75 123 0.0 4.0 0.00 0.04 0.04 95 1016.9
20180813132523 75 117 3.0 4.0 0.00 0.04 0.04 95 1016.9
20180813132053 75 99 0.0 4.0 0.00 0.04 0.04 95 1016.9
20180813131523 75 208 0.0 0.0 0.00 0.04 0.04 95 1016.9
20180813131053 75 202 0.0 4.0 0.00 0.04 0.04 95 1016.9
20180813130523 75 208 0.0 4.0 0.00 0.04 0.04 95 1016.9
20180813130023 75 133 0.0 4.0 0.00 0.04 0.04 95 1016.9
20180813125538 75 113 0.0 3.0 0.00 0.04 0.04 95 1016.9
20180813125023 75 123 0.0 3.0 0.00 0.04 0.04 95 1016.9
20180813124523 75 119 0.0 3.0 0.00 0.04 0.04 95 1016.9
20180813124023 74 120 0.0 0.0 0.00 0.04 0.04 95 1016.9
20180813123523 74 112 0.0 0.0 0.00 0.04 0.04 95 1016.9
20180813123023 74 111 0.0 0.0 0.00 0.04 0.04 95 1016.9
20180813122538 74 120 0.0 0.0 0.00 0.04 0.04 95 1016.9
20180813122039 74 117 0.0 0.0 0.00 0.04 0.04 95 1016.9
20180813121539 74 114 0.0 0.0 0.00 0.04 0.04 95 1016.9
20180813121023 74 119 0.0 0.0 0.00 0.04 0.04 95 1016.9
20180813120523 74 121 0.0 0.0 0.00 0.04 0.04 95 1016.9
20180813120038 74 112 0.0 0.0 0.00 0.04 0.04 95 1016.9
20180813115523 74 117 0.0 0.0 0.00 0.04 0.04 95 1016.9
20180813115023 74 119 0.0 0.0 0.00 0.04 0.04 95 1016.9
20180813114523 74 112 0.0 0.0 0.00 0.04 0.04 94 1016.9
20180813114023 74 117 0.0 3.0 0.00 0.04 0.04 95 1016.9
20180813113523 74 118 0.0 3.0 0.00 0.04 0.04 94 1016.9
20180813113038 74 118 0.0 0.0 0.00 0.04 0.04 94 1016.9
20180813112538 74 117 0.0 0.0 0.00 0.04 0.04 94 1016.9
20180813112023 74 115 0.0 0.0 0.00 0.04 0.04 94 1016.9